Acapulco, Mexico

4:27 AM CDT on April 25, 2017 (GMT -0500)
Gen Juan N Alvarez International

Weather History for MMAA - July, 2013

Change the Weather History Date:

Friday, July 12, 2013

  Actual Average Record
Temperature  
Mean Temperature 82 °F -  
Max Temperature 92 °F 91 °F 97 °F (2014)
Min Temperature 71 °F 76 °F 33 °F (2007)
Cooling Degree Days 16    
Growing Degree Days 32 (Base 50)    
Moisture  
Dew Point 74 °F    
Average Humidity 81    
Maximum Humidity 100    
Minimum Humidity 58    
Precipitation  
Precipitation 1.22 in 0.33 in - ()
Sea Level Pressure  
Sea Level Pressure 29.89 in    
Wind  
Wind Speed 3 mph ()    
Max Wind Speed 9 mph    
Max Gust Speed -    
Visibility 8.6 miles    
Events Rain , Thunderstorm    
Averages and records for this station are not official NWS values.
T = Trace of Precipitation, MM = Missing Value Source: Averaged Metar Reports

Daily Weather History Graph

Daily Weather History Graph

Search for Another Location

Airport or City:

Trip Planner

Search our weather history database for the weather conditions in past years. The results will help you decide how hot, cold, wet, or windy it might be!

Date:

Astronomy

Jul. 12, 2013 Rise Set
Actual Time 7:13 AM CDT 8:16 PM CDT
Civil Twilight 6:49 AM CDT 8:39 PM CDT
Nautical Twilight 6:21 AM CDT 9:07 PM CDT
Astronomical Twilight 5:52 AM CDT 9:36 PM CDT
Moon 10:47 AM CDT (7/12) 11:16 PM CDT (7/12)
Length of Visible Light 13h 50m
Length of Day
13h 03m
Waxing Crescent, 17% of the Moon is Illuminated
Jul 12
Waxing Crescent
Jul 15
First Quarter
Jul 22
Full
Jul 29
Last Quarter
Aug 6
New

Hourly Weather History & Observations

Time (CDT) Temp. Heat Index Dew Point Humidity Pressure Visibility Wind Dir Wind Speed Gust Speed Precip Events Conditions
12:45 AM 80.6 °F 86.2 °F 75.2 °F 84% 29.88 in 7.0 mi Calm Calm - N/A Thunderstorm Thunderstorm
12:50 AM 81 °F - 76 °F 82% 29.92 in 6 mi West 2.2 mph - -   Overcast
1:46 AM 73.4 °F - 73.4 °F 100% 29.95 in 6.0 mi NE 5.8 mph - N/A Rain Rain
2:44 AM 75.2 °F - 73.4 °F 94% 29.94 in 6.0 mi East 4.6 mph - N/A Rain Light Rain
3:45 AM 75 °F - 73 °F 92% 29.91 in 5 mi North 2.2 mph - - Rain Light Drizzle
3:46 AM 73.4 °F - 71.6 °F 94% 29.94 in 6.0 mi North 6.9 mph - N/A Rain Light Rain
4:44 AM 73.4 °F - 73.4 °F 100% 29.91 in 6.0 mi NNW 6.9 mph - N/A Rain Light Rain
5:42 AM 73.4 °F - 73.4 °F 100% 29.91 in 6.0 mi North 6.9 mph - N/A Rain Light Rain
6:48 AM 75.2 °F - 73.4 °F 94% 29.88 in 7.0 mi NNW 4.6 mph - N/A Rain Light Rain
6:50 AM 75 °F - 74 °F 95% 29.91 in 6 mi NW 1.2 mph - -   Partly Cloudy
7:46 AM 75.2 °F - 73.4 °F 94% 29.90 in 8.0 mi Calm Calm - N/A   Overcast
8:45 AM 77.0 °F - 71.6 °F 83% 29.92 in 8.0 mi Calm Calm - N/A   Overcast
9:46 AM 78.8 °F - 71.6 °F 78% 29.92 in 10.0 mi Calm Calm - N/A   Overcast
9:50 AM 80 °F - 76 °F 82% 29.95 in 12 mi NW 2.2 mph - -   Overcast
10:51 AM 80.6 °F 85.4 °F 73.4 °F 79% 29.94 in 10.0 mi NNW 2.3 mph - N/A   Mostly Cloudy
11:43 AM 82.4 °F 89.5 °F 75.2 °F 79% 29.92 in 10.0 mi North 4.6 mph - N/A   Mostly Cloudy
12:44 PM 82.4 °F 87.2 °F 71.6 °F 70% 29.91 in 10.0 mi North 4.6 mph - N/A   Mostly Cloudy
12:50 PM 87 °F - 75 °F 60% 29.90 in 12 mi SW 2.2 mph - -   Scattered Clouds
1:44 PM 86.0 °F 95.1 °F 75.2 °F 70% 29.88 in 10.0 mi South 6.9 mph - N/A   Scattered Clouds
2:45 PM 84.2 °F 92.3 °F 75.2 °F 74% 29.85 in 10.0 mi WSW 9.2 mph - N/A   Mostly Cloudy
3:45 PM 84.2 °F 92.3 °F 75.2 °F 74% 29.84 in 10.0 mi SW 8.1 mph - N/A   Mostly Cloudy
3:50 PM 88 °F - 75 °F 58% 29.85 in 12 mi SW 3.5 mph - -   Scattered Clouds
4:45 PM 84.2 °F 92.3 °F 75.2 °F 74% 29.82 in 10.0 mi WSW 4.6 mph - N/A   Mostly Cloudy
5:47 PM 84.2 °F 90.9 °F 73.4 °F 70% 29.81 in 10.0 mi WSW 6.9 mph - N/A   Scattered Clouds
6:45 PM 82.4 °F 88.2 °F 73.4 °F 74% 29.81 in 10.0 mi West 4.6 mph - N/A   Scattered Clouds
6:50 PM 85 °F - 73 °F 61% 29.81 in 12 mi West 3.5 mph - -   Scattered Clouds
7:45 PM 82.4 °F 88.2 °F 73.4 °F 74% 29.82 in 10.0 mi West 5.8 mph - N/A   Scattered Clouds
8:45 PM 82.4 °F 88.2 °F 73.4 °F 74% 29.83 in 10.0 mi SW 3.5 mph - N/A   Scattered Clouds
9:43 PM 80.6 °F 85.4 °F 73.4 °F 79% 29.86 in 8.0 mi Calm Calm - N/A   Scattered Clouds
9:50 PM 82 °F - 75 °F 73% 29.87 in 6 mi SW 2.2 mph - -   Scattered Clouds
10:42 PM 80.6 °F 85.4 °F 73.4 °F 79% 29.88 in 8.0 mi Calm Calm - N/A   Scattered Clouds
11:43 PM 78.8 °F - 73.4 °F 83% 29.90 in 8.0 mi Calm Calm - N/A   Mostly Cloudy